This is the latest recevied weather packets stored in our database for station/object K5WNG. If no packets are shown the sender has not sent any weather packets the latest 10 day(s).
| Time | Temp. | Humidity | Pressure | Rain* | Wind** | Luminosity | Snow |
|---|---|---|---|---|---|---|---|
| 1777421717 | 30° C | 75% | 1009.3 hPa | 0 mm | - | 42 W/m² | - |
| 1777421417 | 30.56° C | 75% | 1009.3 hPa | 0 mm | - | 56 W/m² | - |
| 1777421120 | 30.56° C | 74% | 1009.3 hPa | 0 mm | - | 74 W/m² | - |
| 1777420817 | 31.11° C | 73% | 1009.3 hPa | 0 mm | - | 101 W/m² | - |
| 1777420520 | 31.67° C | 73% | 1009.2 hPa | 0 mm | - | 103 W/m² | - |
| 1777420217 | 31.67° C | 72% | 1009.2 hPa | 0 mm | - | 119 W/m² | - |
| 1777419920 | 31.67° C | 71% | 1009.2 hPa | 0 mm | - | 138 W/m² | - |
| 1777419617 | 31.67° C | 71% | 1009.2 hPa | 0 mm | - | 151 W/m² | - |
| 1777419320 | 32.22° C | 70% | 1009.2 hPa | 0 mm | - | 168 W/m² | - |
| 1777419020 | 32.22° C | 70% | 1009.2 hPa | 0 mm | - | 180 W/m² | - |
| 1777418718 | 32.22° C | 70% | 1009.2 hPa | 0 mm | - | 221 W/m² | - |
| 1777418420 | 32.22° C | 70% | 1009.2 hPa | 0 mm | - | 235 W/m² | - |
| 1777418117 | 31.67° C | 71% | 1009.2 hPa | 0 mm | - | 260 W/m² | - |
| 1777417822 | 31.67° C | 71% | 1009.3 hPa | 0 mm | - | 292 W/m² | - |
| 1777417518 | 31.67° C | 71% | 1009.4 hPa | 0 mm | - | 291 W/m² | - |
| 1777417218 | 31.67° C | 71% | 1009.5 hPa | 0 mm | - | 318 W/m² | - |
| 1777416923 | 31.11° C | 73% | 1009.4 hPa | 0 mm | - | 343 W/m² | - |
| 1777416621 | 30.56° C | 73% | 1009.5 hPa | 0 mm | - | 322 W/m² | - |
| 1777416318 | 30.56° C | 74% | 1009.6 hPa | 0 mm | - | 285 W/m² | - |
| 1777416015 | 30.56° C | 74% | 1009.7 hPa | 0 mm | - | 258 W/m² | - |
| 1777415718 | 30.56° C | 75% | 1009.8 hPa | 0 mm | - | 265 W/m² | - |
| 1777415421 | 30° C | 75% | 1009.9 hPa | 0 mm | - | 275 W/m² | - |
| 1777415118 | 30° C | 75% | 1010 hPa | 0 mm | - | 271 W/m² | - |
| 1777414818 | 30° C | 76% | 1010.1 hPa | 0 mm | - | 279 W/m² | - |
| 1777414516 | 29.44° C | 76% | 1010.2 hPa | 0 mm | - | 247 W/m² | - |
* Rain latest hour (hover to see other rain measurements)
** Current wind speed in m/s (hover to see current wind gust speed)